Temperature
14 14 14 14 15 15 15 15 15 15 15 15 15 15 15 16 16 15 15 15 15 16 16 16 16 16 16 16 16 16 16 15 15 15 15 15 15 15 15 15 15 15 15
14 14 14 14 14 14 14 15 15 15 15 15 15 15 15 15 15 15 15 15 15 15 15 16 16 15 16 16 16 16 15 15 15 15 15 15 15 15 15 15 15 14 15
13 13 14 14 14 14 14 14 14 15 15 15 15 15 15 15 15 15 15 15 15 15 15 15 15 15 15 15 15 15 15 15 15 15 15 14 14 14 14 14 14 14 14
13 13 13 14 14 14 14 14 14 14 15 15 15 15 15 15 15 15 15 15 15 15 15 15 15 15 15 15 15 15 15 15 15 15 14 14 14 14 14 14 14 14 14
13 13 13 13 13 13 14 14 14 14 14 14 14 15 15 15 15 15 15 15 15 15 15 15 15 15 15 15 15 15 15 15 15 14 14 14 14 14 14 14 14 14 14
12 12 13 13 13 13 13 14 14 14 14 14 14 14 14 14 15 15 15 15 15 14 15 15 15 15 15 15 15 15 15 14 14 14 13 13 13 14 14 14 14 14 14
12 12 13 13 13 13 13 13 13 14 14 14 14 14 14 14 14 14 15 14 14 14 14 14 14 15 15 15 14 14 14 14 14 13 13 13 14 14 14 14 14 14 13
12 12 12 13 13 13 13 13 13 13 13 13 13 13 14 14 14 14 14 14 14 14 14 14 14 14 14 14 14 14 14 14 14 13 13 13 13 13 14 13 13 13 13
12 12 12 12 13 13 13 13 13 13 13 13 13 13 13 13 14 14 14 14 14 14 14 14 14 14 14 14 14 14 14 14 13 13 13 13 13 13 13 13 13 13 13
11 12 12 12 12 12 12 12 13 13 13 13 13 13 13 13 13 13 13 14 14 14 14 14 14 14 14 14 14 14 13 13 12 12 12 12 13 13 13 13 13 13 13
11 11 11 12 12 12 12 12 12 12 12 12 12 12 12 13 13 13 13 13 13 13 13 14 14 14 14 13 13 13 13 12 12 12 12 12 12 12 12 12 12 12 13
10 11 11 11 11 11 12 12 12 12 12 12 12 12 12 12 12 12 12 13 13 13 13 13 13 13 13 13 13 13 12 12 12 12 12 12 12 12 12 12 12 12 12
10 10 11 11 11 11 11 11 11 11 11 11 11 11 11 11 12 12 12 12 12 12 12 13 13 13 13 13 12 12 12 12 12 11 11 12 11 11 11 12 12 12 12
10 10 10 10 10 10 11 11 11 11 11 11 11 11 11 11 11 11 11 12 12 12 12 12 12 12 12 12 12 12 12 11 11 11 11 11 11 11 11 11 11 11 11
9 10 10 10 10 10 10 10 10 10 10 10 10 11 11 11 11 11 11 11 11 11 11 12 11 11 12 12 11 11 11 11 11 11 11 11 11 11 11 11 11 11 11
9 9 9 9 9 9 10 10 10 10 10 10 10 10 10 10 10 10 10 11 11 11 11 11 11 11 11 11 11 11 11 11 11 11 10 10 11 11 11 11 11 11 11
8 8 8 9 9 9 9 9 9 9 9 9 9 9 9 10 10 9 10 10 10 10 10 10 10 10 10 10 10 10 10 10 10 10 10 10 10 10 10 10 10 10 10
8 8 8 8 8 8 8 8 8 9 9 9 9 9 9 9 9 9 9 9 9 9 10 10 10 10 10 10 10 10 10 10 10 10 10 10 10 10 10 10 10 10 10
8 8 8 8 8 8 8 8 8 8 8 8 8 8 8 8 8 8 8 8 9 9 9 9 9 9 9 9 9 9 9 9 9 9 9 9 10 10 10 10 10 10 10
7 7 7 7 7 7 7 7 7 7 7 7 7 7 8 8 8 8 8 8 8 8 8 8 8 9 9 9 9 9 9 9 9 9 9 9 9 9 9 9 9 9 10
6 7 7 7 7 7 7 7 7 7 7 7 7 7 7 7 7 7 7 7 7 7 8 8 8 8 8 8 8 8 8 8 8 9 9 9 9 9 9 9 9 9 9
5 6 6 6 6 6 6 6 6 6 6 6 6 6 6 6 7 7 7 7 7 7 7 7 7 7 7 7 7 7 7 7 7 8 8 8 8 8 8 8 8 9 9
5 5 5 5 5 6 6 6 6 6 5 5 6 6 6 6 6 6 6 6 6 6 6 6 6 6 6 6 7 6 7 7 7 7 8 8 7 8 8 8 8 8 8
4 4 5 5 5 5 5 5 5 5 5 5 5 5 5 5 5 5 5 5 6 6 6 6 6 6 6 6 6 6 6 6 6 6 6 7 7 7 7 7 7 7 7
3 4 4 4 4 4 4 4 4 4 4 4 4 4 4 5 5 5 5 5 5 5 5 5 5 5 5 5 5 5 5 6 6 6 5 6 6 6 7 7 7 7 7
3 3 3 3 3 3 4 4 4 4 4 4 4 4 4 4 4 4 4 4 4 4 4 5 5 5 5 5 5 5 5 5 5 5 5 5 5 5 6 6 6 6 6
Wind_Speed
1 1 3 3 3 4 5 6 6 7 7 7 6 6 5 5 5 5 6 6 6 7 7 7 8 8 9 9 9 9 10 9 10 10 10 10 10 10 10 9 9 10 11
0 1 2 2 3 4 5 6 6 7 7 7 7 6 5 5 4 4 5 5 5 6 6 7 8 8 8 8 8 9 9 9 9 9 9 10 10 10 10 9 8 9 10
1 1 1 3 3 4 5 6 6 6 6 6 6 6 6 5 5 4 4 4 5 5 6 6 7 7 8 8 8 8 9 9 8 8 7 7 9 9 10 9 9 10 10
2 2 2 4 4 4 5 5 6 6 6 5 6 6 6 5 5 4 3 3 4 5 6 6 7 7 7 8 8 8 8 8 7 5 6 6 7 9 8 8 9 9 8
2 2 4 5 5 5 5 5 5 5 5 5 5 5 5 5 5 5 4 3 3 4 5 6 6 7 7 7 7 7 7 7 6 5 5 6 6 7 7 7 7 7 7
2 3 4 5 5 5 6 6 6 6 6 5 5 5 4 5 4 4 4 4 3 2 4 6 6 6 7 7 7 7 7 6 6 5 4 4 5 6 6 6 7 7 6
2 3 4 5 5 5 6 6 6 6 6 5 5 5 4 4 4 4 4 3 3 2 3 5 6 6 6 6 7 7 6 5 4 4 4 4 4 6 6 6 6 6 6
3 3 4 4 5 5 5 6 6 6 6 6 5 5 4 4 4 4 4 3 2 1 3 4 5 5 6 6 6 6 6 5 4 4 4 3 4 4 5 6 6 6 6
4 3 3 3 4 6 6 6 6 6 6 6 6 6 6 5 4 4 4 3 3 1 2 4 4 5 5 5 6 6 5 4 4 3 3 3 4 3 4 5 5 5 5
4 3 3 3 3 3 5 6 6 6 6 6 7 7 6 5 5 4 4 4 4 2 1 3 4 5 5 5 6 7 6 5 3 3 2 2 3 2 3 4 4 4 4
3 3 3 3 3 3 3 4 4 5 6 5 5 6 4 4 4 3 4 5 4 3 2 2 3 4 5 6 6 6 6 4 3 2 2 2 2 1 2 3 3 3 4
2 2 2 2 3 3 3 3 3 3 4 4 4 4 4 3 3 3 4 4 4 3 2 3 3 4 3 4 5 5 4 4 3 3 2 3 1 1 2 3 3 3 3
2 2 2 2 2 2 2 2 2 3 3 3 4 4 4 3 3 3 3 2 2 1 1 1 1 2 2 2 2 3 2 2 2 2 2 3 1 1 2 3 4 4 3
2 2 2 2 2 2 2 2 2 2 3 3 4 4 4 3 2 2 2 3 2 2 1 0 0 2 2 3 3 3 3 2 2 2 2 3 1 1 1 3 3 3 3
2 2 2 2 2 2 2 2 2 2 2 2 3 3 3 2 2 2 2 2 2 2 1 0 0 1 2 3 3 3 3 2 2 2 2 3 1 1 1 1 2 2 2
1 2 2 1 1 1 1 1 2 2 2 2 3 3 3 2 2 2 2 2 2 2 1 0 0 0 1 2 3 2 2 2 2 2 2 2 2 1 0 1 1 1 1
2 2 2 1 1 1 1 1 2 2 2 2 3 3 3 3 2 2 1 1 2 2 1 0 1 1 1 1 2 2 2 2 2 2 2 2 2 2 0 0 0 1 1
2 2 2 2 1 1 1 1 2 2 2 2 2 3 3 3 3 2 1 1 2 1 1 1 0 1 1 1 1 0 1 1 2 2 2 2 1 1 1 0 1 2 2
2 2 2 2 1 1 1 1 2 2 2 2 2 3 3 3 3 2 2 2 1 1 1 1 0 0 1 1 0 0 1 1 2 2 2 2 2 1 1 1 0 1 2
3 3 3 2 2 1 1 1 1 2 2 2 2 3 3 3 3 2 2 1 1 0 1 1 0 1 1 0 0 0 1 1 2 2 2 2 2 2 2 2 2 1 0
4 4 4 3 3 2 1 1 1 1 1 1 2 3 3 3 3 2 1 1 1 0 0 0 0 1 1 0 1 1 2 2 2 2 2 2 2 2 2 2 2 1 1
4 4 4 3 3 2 1 1 1 1 1 1 1 2 3 3 3 2 1 1 1 0 0 0 0 1 0 0 1 2 2 3 2 2 2 2 2 2 2 2 2 2 1
4 4 3 3 3 2 2 1 1 1 1 1 1 1 2 3 2 2 2 2 1 1 1 1 2 2 1 1 1 2 2 3 1 2 2 2 3 2 2 2 2 2 2
4 3 3 3 3 3 2 1 1 1 2 3 2 2 2 2 2 2 2 2 2 1 2 2 2 2 2 2 2 2 3 2 2 1 2 2 2 2 2 2 2 2 2
3 3 3 3 3 3 2 2 2 2 2 2 2 2 2 2 2 2 2 2 2 2 2 2 2 2 2 3 2 2 2 2 3 2 3 2 2 2 2 2 2 2 2
3 3 3 3 4 4 3 3 3 3 3 3 3 2 2 2 2 2 2 2 2 2 2 2 2 3 3 3 3 3 3 2 2 2 3 3 3 2 2 2 2 2 2
Wind_Direction
122 2 14 358 28 50 62 66 62 61 64 67 70 74 83 94 99 100 100 105 114 120 117 117 116 117 113 109 108 108 108 106 102 101 102 104 103 101 101 104 108 103 101
187 6 40 14 44 60 68 68 67 64 66 65 64 64 70 77 91 97 100 101 106 119 124 124 119 118 118 116 111 111 112 110 108 108 111 109 104 101 102 100 94 99 102
48 73 74 39 58 72 70 68 65 63 66 66 62 59 61 69 77 83 89 101 104 115 128 134 129 125 122 119 118 118 117 116 114 118 128 118 110 103 100 100 99 99 100
37 62 61 53 69 78 71 68 64 60 62 65 65 60 57 60 63 71 77 94 101 116 125 131 133 131 126 124 123 124 121 118 119 137 129 115 114 110 108 106 106 102 103
57 60 66 54 74 78 72 65 61 56 55 61 66 63 58 59 57 59 58 64 91 113 124 126 132 135 134 129 128 125 125 124 130 145 121 116 113 115 117 115 114 111 110
88 68 69 59 71 79 74 65 57 55 51 55 61 60 54 55 58 56 52 48 61 103 132 132 134 132 137 135 134 132 128 133 152 133 123 117 114 115 118 122 123 123 119
81 66 73 65 64 73 76 70 62 56 49 50 53 50 44 41 45 52 49 42 41 65 130 139 141 135 135 140 144 143 139 146 152 132 125 118 109 117 121 121 124 128 124
65 56 73 64 59 63 72 68 61 54 49 48 48 43 35 29 30 37 43 39 38 64 128 136 143 144 142 146 147 146 145 160 153 140 141 128 106 122 125 125 127 127 125
56 55 57 64 68 65 66 63 59 54 50 47 43 37 32 26 24 25 30 28 24 41 140 144 145 139 138 145 149 142 140 161 168 143 141 127 112 136 135 133 134 135 131
47 42 42 47 53 59 66 61 59 56 52 49 44 38 36 37 35 32 27 29 22 21 132 138 144 141 137 135 143 146 148 170 172 145 131 103 99 146 150 149 143 141 142
36 28 28 34 38 41 53 57 58 57 51 48 43 40 32 19 19 21 28 29 26 28 73 111 138 146 148 143 139 149 162 172 165 149 137 93 107 151 173 165 152 143 149
7 6 13 21 26 34 41 46 40 39 40 37 31 25 18 12 13 7 34 30 26 33 67 84 126 147 165 161 154 161 173 176 168 156 122 97 120 148 193 185 177 165 161
350 4 5 12 22 30 34 39 34 32 30 25 24 18 16 15 12 6 8 17 10 17 59 89 150 159 150 139 146 153 154 173 170 158 121 111 130 188 197 195 189 185 179
357 358 5 11 20 28 29 36 33 31 28 22 20 19 20 19 6 1 358 353 348 343 330 326 75 165 145 137 143 146 148 153 160 165 117 110 139 226 209 205 200 193 186
354 354 360 9 21 31 35 25 30 27 21 13 18 19 16 17 358 349 349 350 346 355 359 341 97 168 159 144 142 150 150 160 159 171 147 114 140 201 209 213 211 209 188
336 342 359 7 12 22 24 21 26 24 24 16 20 18 12 9 3 346 342 354 359 353 346 11 125 217 163 148 144 144 148 166 175 178 191 159 135 158 222 220 227 232 227
336 352 358 349 4 10 6 17 28 27 23 21 19 17 15 11 358 346 340 3 4 347 333 86 132 122 125 144 147 152 158 167 181 191 193 205 187 154 153 249 292 296 280
343 355 6 6 3 13 9 16 33 34 28 21 12 10 11 14 5 358 3 1 357 348 357 38 100 144 133 147 140 172 191 172 188 201 189 194 200 205 192 59 11 331 321
355 358 7 16 7 25 19 27 39 39 28 19 14 10 0 358 2 17 13 7 351 9 45 38 53 139 140 111 92 254 245 214 201 196 191 191 193 204 210 177 122 7 340
16 18 21 29 21 19 23 26 38 42 29 17 15 11 0 358 3 11 18 7 0 23 58 60 76 98 136 142 85 297 267 233 215 204 205 195 195 204 208 208 209 199 205
23 23 22 25 21 18 359 331 303 327 341 357 9 5 359 355 358 6 3 352 346 341 66 75 95 105 73 175 229 247 240 232 219 210 207 205 208 215 209 206 198 206 217
20 14 14 14 14 7 335 309 293 292 284 322 356 360 358 350 346 348 342 315 312 329 82 102 160 222 304 260 240 237 225 211 209 220 211 208 217 213 208 210 200 194 206
12 5 0 358 359 357 347 339 2 336 313 315 327 339 348 336 329 335 324 319 320 283 243 232 236 225 227 233 248 254 244 230 212 192 213 217 219 214 203 200 206 215 218
358 358 356 358 358 355 353 323 298 292 291 294 299 301 318 324 324 323 311 310 301 278 256 244 243 243 228 230 233 250 268 292 244 218 200 209 223 229 230 217 210 211 216
355 359 357 1 0 356 346 322 295 284 287 296 297 295 302 311 318 319 309 298 293 284 269 256 251 243 236 236 237 240 245 254 258 250 244 229 223 229 246 237 214 204 215
356 2 2 3 357 351 343 327 310 299 291 288 292 294 294 302 306 311 298 288 285 284 278 266 254 246 243 238 238 242 247 242 236 242 250 253 253 242 239 237 224 222 229
Height
1525 1525 1526 1526 1527 1527 1527 1527 1527 1527 1527 1527 1527 1527 1527 1527 1527 1527 1527 1527 1527 1527 1527 1527 1528 1528 1528 1528 1528 1527 1527 1528 1528 1528 1528 1528 1529 1529 1530 1530 1531 1531 1531
1524 1525 1525 1526 1526 1527 1527 1527 1527 1527 1527 1527 1527 1527 1527 1527 1527 1527 1527 1527 1527 1527 1527 1528 1528 1528 1528 1528 1528 1528 1528 1529 1529 1529 1529 1530 1530 1530 1530 1531 1531 1532 1532
1524 1525 1525 1526 1526 1526 1527 1527 1527 1527 1527 1527 1527 1527 1527 1527 1527 1527 1527 1527 1527 1527 1528 1528 1528 1528 1528 1528 1529 1529 1529 1529 1530 1530 1531 1531 1531 1531 1532 1532 1532 1533 1533
1524 1525 1525 1526 1526 1526 1526 1526 1526 1526 1526 1526 1526 1527 1527 1527 1527 1527 1527 1527 1527 1527 1527 1528 1528 1528 1529 1529 1529 1529 1529 1530 1530 1531 1532 1532 1532 1532 1532 1533 1533 1533 1533
1524 1524 1525 1525 1525 1526 1526 1526 1526 1526 1526 1526 1526 1526 1526 1526 1526 1526 1527 1527 1527 1527 1527 1527 1528 1528 1528 1529 1529 1529 1530 1530 1531 1532 1532 1533 1533 1533 1533 1533 1533 1533 1534
1523 1524 1524 1524 1525 1525 1525 1525 1525 1525 1525 1525 1525 1525 1525 1525 1525 1526 1526 1526 1526 1526 1527 1527 1527 1527 1528 1528 1529 1529 1530 1530 1531 1532 1533 1533 1533 1533 1533 1533 1533 1534 1534
1523 1523 1524 1524 1524 1524 1524 1525 1525 1524 1524 1524 1524 1524 1524 1525 1525 1525 1525 1525 1525 1525 1526 1526 1526 1526 1527 1528 1528 1529 1530 1530 1531 1532 1532 1532 1533 1533 1533 1533 1533 1534 1534
1522 1522 1523 1523 1524 1524 1524 1524 1524 1524 1523 1523 1523 1523 1523 1523 1523 1523 1523 1524 1524 1524 1524 1525 1525 1526 1526 1527 1528 1528 1529 1530 1531 1531 1532 1532 1532 1532 1533 1533 1533 1533 1533
1522 1522 1522 1522 1522 1523 1523 1523 1523 1522 1522 1522 1522 1522 1522 1522 1522 1522 1522 1522 1522 1523 1523 1524 1524 1524 1525 1526 1527 1527 1528 1529 1531 1531 1531 1531 1531 1532 1532 1533 1533 1533 1533
1521 1521 1521 1521 1521 1521 1521 1521 1521 1521 1521 1521 1521 1520 1520 1520 1521 1521 1521 1521 1521 1521 1522 1522 1522 1523 1524 1524 1525 1526 1527 1528 1529 1530 1530 1530 1531 1531 1532 1532 1532 1532 1533
1519 1519 1519 1519 1520 1519 1520 1520 1520 1520 1519 1519 1519 1519 1519 1519 1519 1519 1519 1519 1519 1520 1520 1520 1521 1521 1522 1523 1524 1524 1526 1527 1528 1528 1529 1529 1530 1530 1531 1531 1531 1532 1532
1518 1518 1518 1518 1518 1518 1518 1518 1518 1518 1518 1518 1517 1517 1517 1517 1517 1517 1517 1517 1518 1518 1518 1519 1519 1520 1520 1521 1522 1523 1524 1525 1526 1527 1527 1527 1528 1529 1529 1530 1530 1530 1531
1517 1516 1516 1516 1516 1516 1516 1516 1516 1516 1516 1516 1516 1515 1515 1515 1515 1515 1516 1516 1516 1516 1516 1516 1517 1518 1519 1519 1520 1521 1522 1523 1525 1525 1525 1526 1527 1527 1528 1528 1529 1529 1530
1515 1515 1515 1515 1514 1514 1514 1514 1514 1514 1514 1514 1514 1513 1513 1513 1513 1514 1513 1513 1513 1514 1514 1514 1515 1516 1517 1517 1518 1519 1520 1521 1522 1523 1524 1524 1525 1526 1526 1527 1528 1528 1528
1513 1513 1513 1513 1512 1512 1512 1512 1512 1512 1512 1512 1512 1511 1511 1511 1511 1511 1511 1511 1511 1511 1511 1512 1513 1514 1514 1515 1516 1517 1517 1519 1520 1521 1521 1522 1523 1524 1525 1525 1526 1526 1527
1512 1512 1511 1511 1511 1511 1511 1511 1511 1510 1510 1510 1510 1509 1509 1509 1509 1509 1509 1509 1509 1509 1509 1510 1510 1511 1511 1512 1513 1514 1515 1516 1517 1518 1519 1520 1521 1522 1522 1523 1524 1524 1525
1510 1510 1510 1509 1509 1509 1509 1509 1509 1509 1508 1508 1508 1507 1507 1507 1507 1507 1506 1506 1506 1507 1507 1507 1508 1509 1509 1509 1510 1512 1512 1514 1515 1516 1517 1518 1518 1519 1520 1521 1521 1522 1522
1509 1509 1508 1508 1507 1507 1507 1507 1507 1507 1507 1506 1506 1505 1505 1504 1504 1504 1504 1504 1504 1504 1504 1505 1506 1506 1507 1507 1508 1509 1510 1511 1512 1513 1514 1515 1516 1516 1517 1518 1519 1520 1520
1507 1507 1506 1506 1506 1505 1505 1505 1505 1504 1504 1504 1504 1503 1502 1502 1502 1502 1502 1501 1501 1502 1502 1502 1503 1504 1504 1505 1506 1506 1507 1508 1509 1510 1511 1512 1513 1513 1514 1515 1516 1517 1517
1505 1505 1504 1504 1504 1503 1503 1503 1503 1502 1502 1502 1501 1501 1500 1500 1499 1499 1499 1499 1499 1499 1499 1500 1500 1501 1502 1502 1503 1504 1505 1505 1506 1507 1508 1509 1510 1510 1511 1512 1512 1513 1514
1503 1502 1502 1502 1501 1501 1501 1500 1500 1500 1499 1499 1499 1498 1498 1497 1497 1497 1497 1497 1497 1497 1497 1497 1498 1499 1499 1500 1501 1502 1502 1503 1503 1504 1505 1506 1507 1507 1508 1509 1509 1510 1510
1501 1501 1500 1500 1499 1499 1499 1498 1498 1498 1497 1497 1496 1496 1495 1495 1495 1494 1494 1494 1494 1494 1494 1495 1496 1496 1497 1498 1499 1500 1501 1501 1500 1501 1502 1503 1504 1504 1505 1505 1506 1506 1507
1499 1498 1498 1498 1498 1497 1497 1496 1496 1495 1495 1495 1494 1493 1493 1493 1492 1492 1492 1492 1492 1492 1492 1493 1494 1494 1495 1496 1497 1498 1499 1498 1498 1498 1498 1499 1500 1501 1501 1502 1502 1503 1503
1498 1497 1497 1496 1496 1495 1495 1494 1494 1493 1492 1492 1491 1491 1490 1490 1490 1489 1489 1489 1489 1489 1490 1490 1491 1492 1492 1493 1494 1494 1496 1496 1497 1496 1496 1496 1497 1497 1498 1498 1499 1499 1500
1497 1496 1496 1495 1494 1493 1492 1492 1491 1491 1491 1490 1489 1489 1488 1488 1487 1487 1487 1487 1487 1487 1487 1488 1488 1489 1489 1490 1490 1491 1492 1493 1493 1494 1494 1494 1494 1494 1494 1495 1495 1496 1496
1495 1494 1494 1493 1492 1491 1490 1489 1489 1488 1488 1488 1487 1487 1486 1486 1485 1484 1484 1484 1484 1484 1484 1485 1485 1486 1486 1487 1487 1488 1489 1490 1490 1491 1492 1491 1491 1491 1491 1492 1492 1492 1492